EST,Max TemperatureF,Mean TemperatureF,Min TemperatureF,Max Dew PointF,MeanDew PointF,Min DewpointF,Max Humidity, Mean Humidity, Min Humidity, Max Sea Level PressureIn, Mean Sea Level PressureIn, Min Sea Level PressureIn, Max VisibilityMiles, Mean VisibilityMiles, Min VisibilityMiles, Max Wind SpeedMPH, Mean Wind SpeedMPH, Max Gust SpeedMPH,PrecipitationIn, CloudCover, Events, WindDirDegrees
2013-11-1,60,54,47,61,49,38,100,85,61,29.66,29.33,29.10,12,10,6,32,15,44,0.05,7,Rain,231
2013-11-2,46,42,37,46,43,32,100,92,79,30.09,29.73,29.63,12,8,2,15,8,23,0.18,7,Rain,298
2013-11-3,43,38,32,34,31,26,97,76,59,30.47,30.32,30.07,12,10,7,13,5,,0.00,4,,41
2013-11-4,46,40,35,39,32,28,90,71,50,30.52,30.44,30.32,12,9,6,20,12,25,0.00,4,,127
2013-11-5,55,46,38,49,44,37,97,85,65,30.38,30.32,30.19,12,10,10,10,6,,0.00,7,,182
2013-11-6,57,50,44,54,47,37,96,84,69,30.17,29.91,29.80,12,10,4,24,14,34,0.19,8,Rain,234
2013-11-7,43,40,37,37,30,24,93,67,49,30.12,30.06,29.96,12,10,7,21,10,24,0.01,7,Rain,294
2013-11-8,44,37,30,30,26,24,83,68,46,30.28,30.22,30.11,12,11,10,13,8,,0.00,2,,242
2013-11-9,55,46,37,40,35,32,83,61,46,30.20,29.93,29.79,12,11,10,22,14,32,0.00,5,,219
2013-11-10,48,42,35,36,31,28,82,61,48,30.27,30.08,29.88,12,10,7,21,13,30,0.01,6,Rain,282
2013-11-11,42,35,28,40,31,18,100,81,66,30.29,30.11,29.99,10,9,4,22,11,28,0.09,6,Rain-Snow,296
2013-11-12,33,28,24,21,17,12,75,62,48,30.54,30.44,30.29,12,11,10,17,12,25,0.00,4,Rain-Snow,313
2013-11-13,42,32,21,22,17,13,78,57,35,30.55,30.38,30.15,12,11,10,20,10,32,0.00,2,,228
2013-11-14,50,40,29,23,20,17,63,45,32,30.16,30.07,29.99,12,11,10,18,13,28,0.00,2,,217
2013-11-15,51,43,34,31,26,21,84,51,39,30.09,30.04,30.02,12,10,10,13,10,,0.00,6,,205
2013-11-16,52,42,31,50,42,29,100,91,82,30.13,30.01,29.82,12,9,4,14,8,,0.00,6,Rain,168
2013-11-17,59,54,48,58,53,39,100,94,66,29.82,29.56,29.22,10,8,1,41,16,54,0.11,7,Rain-Thunderstorm,186
2013-11-18,48,42,36,40,29,22,72,62,55,30.12,29.78,29.44,12,10,10,30,22,41,0.01,8,,271
2013-11-19,39,35,31,26,22,20,76,60,49,30.43,30.32,30.13,12,11,10,13,9,20,0.00,4,,357
2013-11-20,44,36,29,34,29,25,90,75,51,30.48,30.39,30.28,12,11,10,17,9,22,0.00,4,,111
2013-11-21,47,44,41,45,40,32,100,89,68,30.30,30.23,30.16,10,7,3,16,8,21,0.14,8,Rain,184
2013-11-22,46,38,28,46,41,23,100,95,74,30.35,30.17,30.10,12,6,1,17,5,25,0.08,7,Rain,268
2013-11-23,30,24,16,25,15,3,88,68,42,30.49,30.33,30.23,12,9,0,28,13,33,0.00,4,Snow,297
2013-11-24,23,18,14,13,8,5,77,63,45,30.59,30.53,30.42,12,11,10,17,11,,0.00,2,,282
2013-11-25,32,26,20,24,14,8,79,59,43,30.41,30.20,30.07,12,10,10,21,14,26,0.00,6,Snow,219
2013-11-26,36,33,30,28,26,24,87,76,64,30.10,30.00,29.88,10,9,4,14,9,20,0.00,8,Rain,246
2013-11-27,32,26,19,27,15,8,80,67,50,30.17,29.96,29.86,12,11,10,23,15,32,0.00,5,Rain-Snow,319
2013-11-28,28,22,17,23,17,8,90,77,61,30.44,30.30,30.18,10,9,2,12,7,,0.00,6,Snow,214
2013-11-29,31,22,14,23,17,12,91,82,63,30.68,30.61,30.45,12,9,6,7,3,,0.00,2,,213
2013-11-30,41,34,28,28,26,23,88,74,56,30.56,30.33,30.11,12,11,7,14,10,,0.00,3,,174